This demonstration page uses our WeatherBlox Daily Observations layout. Learn more.

Hourly Observations for November 4, 2020

Temp ( °F °C ) Dew Point ( °F °C ) Humidity (%) Winds ( mph kmh ) Pressure ( in mb ) Visibility ( mi km ) Precip ( " mm )
12:15 am 00:15 Clear 37 3 36 2 93 93 N 3 6 30.35 1028 10 16.0934 0 0
12:35 am 00:35 Clear 37 3 36 2 93 93 Calm 30.35 1028 10 16.0934 0 0
12:55 am 00:55 Clear 37 3 36 2 93 93 N 3 6 30.35 1028 10 16.0934 0 0
1:15 am 01:15 Clear 37 3 36 2 93 93 Calm 30.36 1028 10 16.0934 0 0
1:35 am 01:35 Clear 36 2 36 2 100 100 Calm 30.37 1028 10 16.0934 0 0
1:55 am 01:55 Clear 37 3 36 2 93 93 Calm 30.37 1028 10 16.0934 0 0
2:15 am 02:15 Clear 36 2 34 1 93 93 Calm 30.38 1029 10 16.0934 0 0
2:35 am 02:35 Clear 36 2 36 2 100 100 Calm 30.39 1029 10 16.0934 0 0
2:55 am 02:55 Clear 34 1 32 0 93 93 Calm 30.39 1029 10 16.0934 0 0
3:15 am 03:15 Clear 34 1 34 1 100 100 NNW 5 7 30.39 1029 10 16.0934 0 0
3:35 am 03:35 Clear 36 2 34 1 93 93 Calm 30.4 1029 10 16.0934 0 0
3:55 am 03:55 Clear 34 1 32 0 93 93 Calm 30.4 1029 10 16.0934 0 0
4:15 am 04:15 Clear 34 1 34 1 100 100 Calm 30.41 1030 10 16.0934 0 0
4:35 am 04:35 Clear 34 1 32 0 93 93 Calm 30.41 1030 10 16.0934 0 0
4:55 am 04:55 Clear 34 1 32 0 93 93 Calm 30.42 1030 10 16.0934 0 0
5:15 am 05:15 Clear 34 1 34 1 100 100 Calm 30.43 1030 10 16.0934 0 0
5:35 am 05:35 Clear 34 1 32 0 93 93 Calm 30.43 1030 10 16.0934 0 0
5:55 am 05:55 Clear 34 1 32 0 93 93 Calm 30.44 1031 10 16.0934 0 0
6:15 am 06:15 Clear 34 1 32 0 93 93 Calm 30.44 1031 10 16.0934 0 0
6:35 am 06:35 Clear 32 0 32 0 100 100 Calm 30.44 1031 10 16.0934 0 0
6:55 am 06:55 Sunny 32 0 32 0 100 100 Calm 30.45 1031 10 16.0934 0 0
7:15 am 07:15 Sunny 34 1 34 1 100 100 Calm 30.45 1031 10 16.0934 0 0
7:35 am 07:35 Sunny 34 1 34 1 100 100 Calm 30.46 1032 10 16.0934 0 0
7:55 am 07:55 Sunny 36 2 36 2 100 100 Calm 30.47 1032 10 16.0934 0 0
8:15 am 08:15 Sunny 39 4 36 2 87 87 Calm 30.48 1032 10 16.0934 0 0
8:35 am 08:35 Sunny 43 6 36 2 76 76 Calm 30.47 1032 10 16.0934 0 0
8:55 am 08:55 Sunny 45 7 37 3 76 76 Calm 30.47 1032 10 16.0934 0 0
9:15 am 09:15 Sunny 46 8 36 2 66 66 Calm 30.48 1032 10 16.0934 0 0
9:35 am 09:35 Sunny 48 9 37 3 66 66 Calm 30.48 1032 10 16.0934 0 0
9:55 am 09:55 Sunny 50 10 37 3 62 62 Calm 30.48 1032 7 11.26538 0 0
10:15 am 10:15 Sunny 54 12 39 4 58 58 Calm 30.46 1032 10 16.0934 0 0
10:35 am 10:35 Sunny 55 13 39 4 55 55 Calm 30.46 1032 10 16.0934 0 0
10:55 am 10:55 Sunny 55 13 39 4 55 55 S 3 6 30.46 1032 10 16.0934 0 0
11:15 am 11:15 Sunny N/A N/A N/A S 6 9 N/A 10 16.0934 0 0
11:35 am 11:35 Sunny N/A N/A N/A S 10 17 N/A 10 16.0934 0 0
11:55 am 11:55 Sunny N/A N/A N/A SSW 9 15 N/A 10 16.0934 0 0
12:15 pm 12:15 Sunny N/A N/A N/A S 9 15 N/A 10 16.0934 0 0
12:35 pm 12:35 Sunny N/A N/A N/A SSW 14 22 N/A 10 16.0934 0 0
12:55 pm 12:55 Sunny N/A N/A N/A S 13 20 N/A 10 16.0934 0 0
1:15 pm 13:15 Sunny N/A N/A N/A S 10 17 N/A 10 16.0934 0 0
1:35 pm 13:35 Sunny N/A N/A N/A S 13 20 N/A 10 16.0934 0 0
9:55 pm 21:55 Clear 54 12 39 4 58 58 S 6 9 30.45 1031 10 16.0934 0 0
10:15 pm 22:15 Clear 52 11 39 4 62 62 S 6 9 30.45 1031 10 16.0934 0 0
10:35 pm 22:35 Clear 52 11 41 5 67 67 S 3 6 30.45 1031 10 16.0934 0 0
10:55 pm 22:55 Clear 52 11 41 5 67 67 S 3 6 30.45 1031 10 16.0934 0 0
11:15 pm 23:15 Clear 52 11 41 5 67 67 S 5 7 30.45 1031 10 16.0934 0 0
11:35 pm 23:35 Clear 52 11 41 5 67 67 S 8 13 30.45 1031 10 16.0934 0 0
11:55 pm 23:55 Clear 48 9 41 5 76 76 S 9 15 30.46 1031 10 16.0934 0 0

Powered by AerisWeather